When you browse on this site, cookies collect data to enhance your experience and personalize the content and advertising you see.
Visit our Privacy Policy to learn more. By continuing to use the site, you agree to this use of cookies and data.
  • In Hungary
  • List of Countries
  • For 7 days
  • Water Temperature
  • Satellite Maps
  • Weather Map
  • News
  • Weather Widgets
  • user-avatar
    Login

    Hourly Weather Cisow

    Today, 19 May, Sunday

    Time Temperature Precipitation Wind Pressure Humidity
    00:00 +14°C° 0 mm 2 mps 727 mmHg 95%
    01:00 +14°C° 0 mm 2 mps 727 mmHg 96%
    02:00 +14°C° 0 mm 2 mps 727 mmHg 96%
    03:00 +14°C° 0 mm 2 mps 727 mmHg 97%
    04:00 +13°C° 0 mm 2 mps 727 mmHg 97%
    05:00 +15°C° 0 mm 2 mps 727 mmHg 94%
    06:00 +16°C° 0 mm 3 mps 727 mmHg 91%
    07:00 +17°C° 0 mm 3 mps 727 mmHg 88%
    08:00 +18°C° 0 mm 3 mps 727 mmHg 82%
    09:00 +20°C° 0 mm 3 mps 727 mmHg 76%
    10:00 +21°C° 0 mm 3 mps 727 mmHg 70%
    11:00 +22°C° 0 mm 3 mps 727 mmHg 65%
    12:00 +24°C° 0 mm 3 mps 726 mmHg 61%
    13:00 +25°C° 0 mm 4 mps 726 mmHg 56%
    14:00 +25°C° 0.2 mm 4 mps 726 mmHg 58%
    15:00 +23°C° 0.2 mm 4 mps 726 mmHg 61%
    16:00 +23°C° 0.2 mm 4 mps 726 mmHg 63%
    17:00 +22°C° 0.1 mm 4 mps 725 mmHg 70%
    18:00 +20°C° 0.1 mm 4 mps 725 mmHg 76%
    19:00 +19°C° 0.1 mm 3 mps 725 mmHg 83%
    20:00 +18°C° 0 mm 3 mps 725 mmHg 86%
    21:00 +17°C° 0 mm 3 mps 725 mmHg 89%
    22:00 +14°C° 0 mm 3 mps 725 mmHg 91%
    23:00 +14°C° 0 mm 3 mps 725 mmHg 92%

    Tomorrow, 20 May, Monday

    Time Temperature Precipitation Wind Pressure Humidity
    00:00 +14°C° 0 mm 3 mps 725 mmHg 93%
    01:00 +14°C° 0 mm 2 mps 725 mmHg 94%
    02:00 +13°C° 0 mm 3 mps 724 mmHg 94%
    03:00 +13°C° 0 mm 3 mps 724 mmHg 95%
    04:00 +13°C° 0 mm 3 mps 724 mmHg 95%
    05:00 +14°C° 0 mm 3 mps 724 mmHg 93%
    06:00 +17°C° 0 mm 4 mps 724 mmHg 90%
    07:00 +18°C° 0 mm 4 mps 724 mmHg 87%
    08:00 +20°C° 0 mm 5 mps 724 mmHg 79%
    09:00 +21°C° 0 mm 5 mps 724 mmHg 71%
    10:00 +23°C° 0 mm 6 mps 725 mmHg 63%
    11:00 +23°C° 0 mm 6 mps 725 mmHg 61%
    12:00 +24°C° 0 mm 6 mps 725 mmHg 60%
    13:00 +24°C° 0 mm 7 mps 725 mmHg 58%
    14:00 +24°C° 0 mm 6 mps 725 mmHg 58%
    15:00 +24°C° 0 mm 6 mps 725 mmHg 58%
    16:00 +23°C° 0 mm 6 mps 725 mmHg 58%
    17:00 +22°C° 0 mm 5 mps 725 mmHg 65%
    18:00 +20°C° 0 mm 4 mps 725 mmHg 71%
    19:00 +19°C° 0 mm 4 mps 725 mmHg 78%
    20:00 +18°C° 0 mm 3 mps 725 mmHg 80%
    21:00 +17°C° 0 mm 3 mps 725 mmHg 82%
    22:00 +15°C° 0 mm 2 mps 725 mmHg 85%
    23:00 +15°C° 0 mm 2 mps 725 mmHg 86%

    Day after tomorrow, 21 May, Tuesday

    Time Temperature Precipitation Wind Pressure Humidity
    00:00 +14°C° 0 mm 2 mps 725 mmHg 88%
    01:00 +13°C° 0 mm 1 mps 725 mmHg 90%
    02:00 +13°C° 0 mm 1 mps 725 mmHg 89%
    03:00 +13°C° 0 mm 1 mps 724 mmHg 89%
    04:00 +13°C° 0 mm 1 mps 724 mmHg 88%
    05:00 +14°C° 0.2 mm 1 mps 725 mmHg 88%
    06:00 +14°C° 0.2 mm 1 mps 725 mmHg 88%
    07:00 +15°C° 0.2 mm 1 mps 725 mmHg 88%
    08:00 +15°C° 0.3 mm 1 mps 725 mmHg 85%
    09:00 +16°C° 0.3 mm 1 mps 725 mmHg 81%
    10:00 +18°C° 0.3 mm 1 mps 725 mmHg 78%
    11:00 +16°C° 0.7 mm 2 mps 725 mmHg 80%
    12:00 +16°C° 0.7 mm 2 mps 725 mmHg 83%
    13:00 +16°C° 0.7 mm 2 mps 725 mmHg 85%
    14:00 +15°C° 0.1 mm 2 mps 725 mmHg 85%
    15:00 +15°C° 0.1 mm 2 mps 725 mmHg 85%
    16:00 +15°C° 0.1 mm 1 mps 725 mmHg 85%
    17:00 +15°C° 0.2 mm 1 mps 726 mmHg 85%
    18:00 +15°C° 0.2 mm 1 mps 726 mmHg 84%
    19:00 +15°C° 0.2 mm 1 mps 726 mmHg 84%
    20:00 +14°C° 0 mm 1 mps 726 mmHg 85%
    21:00 +13°C° 0 mm 1 mps 726 mmHg 87%
    22:00 +12°C° 0 mm 1 mps 726 mmHg 89%
    23:00 +12°C° 0 mm 1 mps 726 mmHg 90%

    22 May, Wednesday

    Time Temperature Precipitation Wind Pressure Humidity
    00:00 +12°C° 0 mm 1 mps 726 mmHg 90%
    01:00 +12°C° 0 mm 1 mps 726 mmHg 91%
    02:00 +12°C° 0 mm 1 mps 726 mmHg 91%
    03:00 +11°C° 0 mm 1 mps 726 mmHg 92%
    04:00 +11°C° 0 mm 1 mps 726 mmHg 93%
    05:00 +13°C° 0 mm 1 mps 727 mmHg 89%
    06:00 +14°C° 0 mm 2 mps 727 mmHg 86%
    07:00 +15°C° 0 mm 2 mps 727 mmHg 83%
    08:00 +16°C° 0.5 mm 2 mps 727 mmHg 79%
    09:00 +18°C° 0.5 mm 2 mps 727 mmHg 75%
    10:00 +19°C° 0.5 mm 3 mps 727 mmHg 71%
    11:00 +19°C° 1.5 mm 3 mps 727 mmHg 71%
    12:00 +19°C° 1.5 mm 3 mps 727 mmHg 72%
    13:00 +20°C° 1.5 mm 3 mps 727 mmHg 73%
    14:00 +19°C° 1 mm 3 mps 727 mmHg 74%
    15:00 +19°C° 1 mm 3 mps 727 mmHg 75%
    16:00 +19°C° 1 mm 3 mps 727 mmHg 76%
    17:00 +18°C° 0.3 mm 3 mps 727 mmHg 81%
    18:00 +17°C° 0.3 mm 3 mps 727 mmHg 86%
    19:00 +15°C° 0.3 mm 2 mps 727 mmHg 91%
    20:00 +14°C° 0.1 mm 2 mps 727 mmHg 93%
    21:00 +13°C° 0.1 mm 2 mps 727 mmHg 94%
    22:00 +12°C° 0.1 mm 2 mps 728 mmHg 96%
    23:00 +12°C° 0 mm 2 mps 728 mmHg 97%

    23 May, Thursday

    Time Temperature Precipitation Wind Pressure Humidity
    00:00 +12°C° 0 mm 3 mps 728 mmHg 97%
    01:00 +12°C° 0 mm 3 mps 728 mmHg 97%
    02:00 +11°C° 0 mm 3 mps 728 mmHg 97%
    03:00 +11°C° 0 mm 3 mps 728 mmHg 97%
    04:00 +11°C° 0 mm 3 mps 728 mmHg 96%
    05:00 +13°C° 0 mm 2 mps 728 mmHg 95%
    06:00 +13°C° 0 mm 2 mps 728 mmHg 93%
    07:00 +14°C° 0 mm 2 mps 728 mmHg 91%
    08:00 +15°C° 0.1 mm 2 mps 729 mmHg 89%
    09:00 +15°C° 0.1 mm 2 mps 729 mmHg 87%
    10:00 +16°C° 0.1 mm 2 mps 729 mmHg 85%
    11:00 +17°C° 0.4 mm 2 mps 729 mmHg 82%
    12:00 +18°C° 0.4 mm 2 mps 729 mmHg 78%
    13:00 +19°C° 0.4 mm 2 mps 729 mmHg 74%
    14:00 +18°C° 0.9 mm 3 mps 729 mmHg 78%
    15:00 +17°C° 0.9 mm 5 mps 729 mmHg 82%
    16:00 +16°C° 0.9 mm 6 mps 730 mmHg 86%
    17:00 +15°C° 0.2 mm 6 mps 730 mmHg 88%
    18:00 +14°C° 0.2 mm 6 mps 730 mmHg 91%
    19:00 +13°C° 0.2 mm 5 mps 730 mmHg 93%
    20:00 +13°C° 0 mm 5 mps 730 mmHg 93%
    21:00 +12°C° 0 mm 5 mps 731 mmHg 93%
    22:00 +12°C° 0 mm 5 mps 731 mmHg 93%
    23:00 +11°C° 0 mm 4 mps 731 mmHg 91%

    24 May, Friday

    Time Temperature Precipitation Wind Pressure Humidity
    00:00 +10°C° 0 mm 4 mps 731 mmHg 89%
    01:00 +8°C° 0 mm 4 mps 731 mmHg 87%
    02:00 +9°C° 0 mm 3 mps 731 mmHg 87%
    03:00 +8°C° 0 mm 3 mps 731 mmHg 87%
    04:00 +8°C° 0 mm 2 mps 731 mmHg 88%
    05:00 +9°C° 0 mm 3 mps 731 mmHg 84%
    06:00 +10°C° 0 mm 3 mps 731 mmHg 80%
    07:00 +11°C° 0 mm 3 mps 731 mmHg 76%
    08:00 +13°C° 0 mm 3 mps 731 mmHg 68%
    09:00 +14°C° 0 mm 3 mps 730 mmHg 61%
    10:00 +17°C° 0 mm 3 mps 730 mmHg 53%
    11:00 +18°C° 0 mm 3 mps 730 mmHg 51%
    12:00 +18°C° 0 mm 2 mps 729 mmHg 48%
    13:00 +19°C° 0 mm 2 mps 729 mmHg 46%
    14:00 +19°C° 0 mm 2 mps 728 mmHg 47%
    15:00 +19°C° 0 mm 2 mps 728 mmHg 49%
    16:00 +19°C° 0 mm 2 mps 727 mmHg 50%
    17:00 +18°C° 0 mm 2 mps 727 mmHg 57%
    18:00 +16°C° 0 mm 2 mps 727 mmHg 65%
    19:00 +15°C° 0 mm 1 mps 726 mmHg 72%
    20:00 +14°C° 0 mm 1 mps 726 mmHg 75%
    21:00 +12°C° 0 mm 1 mps 726 mmHg 79%
    22:00 +11°C° 0 mm 1 mps 726 mmHg 83%
    23:00 +11°C° 0 mm 1 mps 725 mmHg 84%
    Show more